Regional Weather Roundup
Issued by NWS

Home | Current Version | Previous Version | Text Only | Print | Product List | Glossary Off
Versions: 1 2 3 4 5 6 7 8 9 10 11 12 13 14 15 16 17 18 19 20 21 22 23 24 25 26

000
ASUS45 KBOU 262207
RWRCO

WEATHER ROUNDUP FOR COLORADO
NATIONAL WEATHER SERVICE DENVER/BOULDER CO
400 PM MDT WED JUL 26 2017

NOTE: "FAIR" INDICATES FEW OR NO CLOUDS BELOW 12000 FEET WITH NO
SIGNIFICANT WEATHER AND/OR OBSTRUCTIONS TO VISIBILITY.

COZ001>005-013-030-031-262300-
...NORTHWEST COLORADO...

CITY           SKY/WX    TMP DP  RH WIND       PRES   REMARKS
CRAIG          FAIR      74  58  57 CALM      30.27F
HAYDEN         FAIR      66  55  68 NW7       30.30S THUNDER
MEEKER         FAIR      78  59  51 VRB3      30.28F
RABBIT EARS PA DRIZZLE   55  55 100 W8        30.60R
STEAMBOAT SPGS FAIR      75  55  48 NW5       30.31S
WALDEN         CLOUDY    59  54  82 E5        30.43F
$$

COZ006>008-011-262300-
...WEST CENTRAL VALLEYS...

CITY           SKY/WX    TMP DP  RH WIND       PRES   REMARKS
GRAND JUNCTION FAIR      88  60  38 W9        30.15F
MONTROSE       FAIR      85  55  35 VRB7      30.22F
EAGLE          PTSUNNY   79  54  41 SW15      30.30F
RIFLE          FAIR      83  61  47 N5        30.21F
DELTA          FAIR      92  51  24 W12       30.17F
NUCLA          FAIR      84  52  32 N5        30.27F
$$

COZ017>023-064>068-262300-
...SOUTHWEST COLORADO...

CITY           SKY/WX    TMP DP  RH WIND       PRES   REMARKS
DURANGO        FAIR      83  49  30 SW13      30.28F
CORTEZ         FAIR      86  53  32 VRB5      30.24F
PAGOSA SPRINGS FAIR      81  44  26 W6G17     30.36F
TELLURIDE      LGT RAIN  64  57  77 S7        30.51S
WOLF CREEK PAS FAIR      54  50  87 S13G20    30.74F
$$

COZ009-010-012-014-032>034-037-058>063-262300-
...CENTRAL COLORADO...

CITY           SKY/WX    TMP DP  RH WIND       PRES   REMARKS
ASPEN          PTSUNNY   76  54  46 N6        30.37F
BUENA VISTA    FAIR      82  41  23 S7        30.33F
COPPER MTN     PTSUNNY   61  48  63 NW13      30.71F
BERTHOUD PASS  CLOUDY    48  34  57 NW16G23   30.74S THUNDER
COTTONWOOD PAS FAIR      77  39  25 SW5       30.51F
GUNNISON       FAIR      79  53  40 N7        30.34
KREMMLING      FAIR      86  50  28 W10       30.35F
LEADVILLE      LGT RAIN  65  48  54 W6        30.48F
MONARCH PASS   PTSUNNY   57  46  67 SW17      30.80F
SALIDA         FAIR      85  47  26 SW15G22   30.36F
SUNLIGHT       CLOUDY    57  52  82 W3        30.65S
WILKERSON PASS CLOUDY    61  50  67 SE6       30.67F THUNDER
$$

COZ069>075-262300-
...SAN LUIS VALLEY/SANGRE DE CRISTO MOUNTAINS...

CITY           SKY/WX    TMP DP  RH WIND       PRES   REMARKS
ALAMOSA        FAIR      82  51  34 MISG      30.30F
DEL NORTE      TSTM      72  58  62 W3        30.38R
LA VETA PASS   NOT AVBL
SAGUACHE         N/A    N/A N/A N/A MISG        N/A
$$

COZ035-036-038>040-262300-
...NORTHERN COLORADO FRONT RANGE...

CITY           SKY/WX    TMP DP  RH WIND       PRES   REMARKS
DENVER INTL AP PTSUNNY   83  56  39 N10       30.22F
DMNS CITY PARK   N/A     79  58  48 N6G15     30.21F
AURORA         PTSUNNY   80  58  47 N10G16    30.25S
FRONT RANGE AP PTSUNNY   82  57  42 N8        30.24S
ERIE MUNI ARPT PTSUNNY   78  57  47 NE6       30.22S
BOULDER MUN AP CLOUDY    77  59  53 N8        30.23S
CENTENNIAL     PTSUNNY   80  58  46 N14G21    30.25S
BROOMFIELD     DRIZZLE   77  61  57 NE8       30.26S
FORT COLLINS   FAIR      76  62  62 CALM      30.23S
LONGMONT       FAIR      79  61  54 N10       30.24S
$$

COZ041-046-047-076>085-087-088-262300-
...PIKES PEAK/PALMER DIVIDE AND SOUTHERN FOOTHILLS...

CITY           SKY/WX    TMP DP  RH WIND       PRES   REMARKS
COLO. SPRINGS  TSTM      74  62  66 N28G35    30.27S
A. F. ACADEMY  MOSUNNY   71  62  72 E6        30.29F THUNDER
SCHRIEVER AFB  PTSUNNY   77  57  49 NE15      30.26F THUNDER
CHEYENNE MTN   PTSUNNY   73  59  62 N18       30.27F
ELLICOTT       FAIR     N/A N/A N/A NE14G23   30.23F THUNDER
FALCON         TSTM      63  56  77 N8G17     30.34R
FORT CARSON    PTSUNNY   83  60  44 N20       30.21F
LIMON          FAIR      84  60  44 N9        30.20F
MONUMENT HILL  PTSUNNY   72  55  56 NE8       30.35S
CANON CITY     SUNNY     91  61  35 E8G17     30.15F
WALSENBURG     FAIR      86  57  37 E14G22    30.23R
TRINIDAD       NOT AVBL
$$

COZ042>045-048>051-090-091-262300-
...NORTHEAST COLORADO...

CITY           SKY/WX    TMP DP  RH WIND       PRES   REMARKS
GREELEY ARPT   FAIR      80  59  48 NE6       30.20S HAZE
AKRON          FAIR      84  57  39 NE20      30.18S
BURLINGTON     FAIR      86  62  44 NE15G29   30.12F
WRAY           NOT AVBL
YUMA           NOT AVBL
STERLING       FAIR      84  61  45 NE13      30.14S
HOLYOKE        FAIR      82  63  51 E12       30.13S
FORT MORGAN    CLOUDY    83  53  34 N14G22    30.17F
$$

COZ086-089-092>099-262300-
...SOUTHEAST COLORADO...

CITY           SKY/WX    TMP DP  RH WIND       PRES   REMARKS
PUEBLO         FAIR      92  54  27 CALM      30.09F
LA JUNTA       FAIR      94  57  28 E13G20    30.07F
LAMAR          FAIR      94  62  34 NE9       30.03F
SPRINGFIELD      N/A     93  58  30 VRB6      30.08F
$$




USA.gov is the U.S. government's official web portal to all federal, state and local government web resources and services.